MEASAT-3A

Last updated on Tue Sep 22 2026 00:03:11 GMT+0000 (Coordinated Universal Time)

1 35362U 09032A 26264.31304922 -.00000114 00000+0 00000+0 0 9992 2 35362 0.0423 355.7896 0002014 194.2516 82.8562 1.00271465 8991
UTC large
Height (km)
Speed (km/s)
/
Latitude / Longitude
Inclination (degrees)
Orbital Period (minutes)
Azimuth
Elevation
Range (km)
Doppler Factor

Next 0 passes for location: London (51.5072 / 0.1276)

No passes found over London.
MEASAT-3A